Regional Weather Roundup
Issued by NWS State College, PA

Home | Current Version | Previous Version | Graphics & Text | Print | Product List | Glossary Off
Versions: 1 2 3 4 5 6 7 8 9 10 11 12 13 14 15 16 17 18 19 20 21 22 23 24 25 26 27 28 29 30 31 32 33 34 35 36 37 38 39 40 41 42 43 44 45 46 47 48 49 50

000
ASUS41 KCTP 042110
RWRCTP

REGIONAL WEATHER ROUNDUP
NATIONAL WEATHER SERVICE STATE COLLEGE PA
500 PM EDT TUE AUG 04 2015

Note: "fair" indicates few or no clouds below 12,000 feet with no
significant weather and/or obstructions to visibility.

* = STATION THAT DOES NOT REPORT PRECIPITATION /E.G. RAIN...SNOW...ETC/
    THUNDER OR FOG.

PAZ002>004-007>009-013>016-020>023-029>032-042200-
WESTERN PENNSYLVANIA

CITY           SKY/WX    TMP DP  RH WIND       PRES   REMARKS
ERIE           SUNNY     80  53  39 W10G23    29.91F
MEADVILLE      SUNNY     81  49  32 W9        29.95F
FRANKLIN*      PTSUNNY   79  52  38 SW10      29.97F
NEW CASTLE     FAIR      84  53  34 SW6       29.95F
BEAVER COUNTY  MOSUNNY   81  54  39 SW8       29.96S
BUTLER*        MOSUNNY   81  54  39 W5        29.97F
PITTSBURGH INT MOSUNNY   81  51  35 W7        29.96S
PITTSBURGH     MOSUNNY   79  49  34 W8G20     29.95F
INDIANA*       SUNNY     79  54  41 W8G15     29.99F
LATROBE        MOSUNNY   81  55  41 W17       29.97F
WASHINGTON CO* NOT AVBL
$$

PAZ004>006-010>012-017>019-024>028-033>037-041-042-045-046-049>053-042200-
CENTRAL PENNSYLVANIA

CITY           SKY/WX    TMP DP  RH WIND       PRES   REMARKS
BRADFORD       CLOUDY    71  52  50 W8        29.97S
DUBOIS         SUNNY     79  53  40 SW10      29.96F
CLEARFIELD     MOSUNNY   80  53  39 W13G20    29.96S
JOHNSTOWN      MOSUNNY   75  51  43 W10       30.00F
ALTOONA        SUNNY     81  52  36 W10       29.97S
STATE COLLEGE  MOSUNNY   79  55  44 W17       29.95S
WILLIAMSPORT   SUNNY     86  53  32 W14       29.88S
SELINSGROVE    SUNNY     83  56  39 NW6       29.90F
FT INDIANTOWN  SUNNY     85  54  34 W10       29.90S
CAPITAL CITY   MOSUNNY   88  50  27 W9        29.89R
HARRISBURG     MOSUNNY   89  53  29 W12G20    29.88S
YORK           MOSUNNY   86  62  44 W7        29.90S
$$

PAZ038>040-043-044-047-048-054-055-060>062-067>071-042200-
EASTERN PENNSYLVANIA

CITY           SKY/WX    TMP DP  RH WIND       PRES   REMARKS
SCRANTON       MOSUNNY   82  55  39 SW12      29.89R
MOUNT POCONO   MOSUNNY   78  53  41 W15G22    29.94S
ALLENTOWN      SUNNY     84  56  38 W13G23    29.89R
QUAKERTOWN*    CLEAR     86  55  35 W9        29.90S
READING        SUNNY     87  55  33 W15       29.88S
LANCASTER      SUNNY     86  55  34 W16G23    29.89S
COATESVILLE    CLEAR     84  61  45 W8        29.92S
POTTSTOWN      SUNNY     86  54  33 W13G22    29.90S
BLUE BELL      SUNNY     88  59  37 W5G16     29.88S
DOYLESTOWN     MOSUNNY   84  54  35 W8        29.88R
WILLOW GROVE   NOT AVBL
NORTH PHILA    SUNNY     92  50  23 W16G22    29.88S
PHILADELPHIA   MOSUNNY   91  57  31 W17G24    29.88S
$$



USA.gov is the U.S. government's official web portal to all federal, state and local government web resources and services.